Sioux City, IA

7:41 PM CDT on August 17, 2017 (GMT -0500)
Sioux Gateway

Weather History for KSUX - December, 2013

Change the Weather History Date:

Monday, December 23, 2013

  Actual Average Record
Temperature  
Mean Temperature -1 °F 21 °F  
Max Temperature 7 °F 30 °F 58 °F (1950)
Min Temperature -10 °F 11 °F -24 °F (1989)
Degree Days  
Heating Degree Days 66 44  
Month to date heating degree days 1098 958  
Since 1 July heating degree days 2522 2434  
Cooling Degree Days 0 0  
Month to date cooling degree days 0 0  
Year to date cooling degree days 960 869  
Moisture  
Dew Point -13 °F    
Average Humidity 60    
Maximum Humidity 79    
Minimum Humidity 41    
Precipitation  
Precipitation 0.00 in 0.03 in 0.35 in (2009)
Month to date precipitation 0.16 0.63  
Year to date precipitation 26.71 27.57  
Snow  
Snow 0.00 in 0.30 in 3.70 in (2009)
Month to date snowfall 2.1 6.0  
Since 1 July snowfall 3.0 11.4  
Snow Depth 0.00 in    
Sea Level Pressure  
Sea Level Pressure 30.62 in    
Wind  
Wind Speed 12 mph (NW)    
Max Wind Speed 23 mph    
Max Gust Speed 27 mph    
Visibility 10 miles    
Events      
T = Trace of Precipitation, MM = Missing Value Source: NWS Daily Summary

Daily Weather History Graph

Daily Weather History Graph

Search for Another Location

Airport or City:

Trip Planner

Search our weather history database for the weather conditions in past years. The results will help you decide how hot, cold, wet, or windy it might be!

Date:

Astronomy

Dec. 23, 2013 Rise Set
Actual Time 7:52 AM CST 4:57 PM CST
Civil Twilight 7:20 AM CST 5:29 PM CST
Nautical Twilight 6:45 AM CST 6:04 PM CST
Astronomical Twilight 6:10 AM CST 6:38 PM CST
Moon 11:15 PM CST (12/23) 11:11 AM CST (12/23)
Length of Visible Light 10h 08m
Length of Day
9h 04m
Waning Gibbous, 68% of the Moon is Illuminated
Dec 23
Waning Gibbous
Dec 25
Last Quarter
Jan 1
New
Jan 7
First Quarter
Jan 15
Full

Hourly Weather History & Observations

Time (CST) Temp. Windchill Dew Point Humidity Pressure Visibility Wind Dir Wind Speed Gust Speed Precip Events Conditions
12:52 AM 1.0 °F -18.7 °F -5.1 °F 75% 30.50 in 10.0 mi NW 16.1 mph - N/A   Clear
1:52 AM 1.0 °F -19.9 °F -5.1 °F 75% 30.51 in 10.0 mi NW 18.4 mph 25.3 mph N/A   Partly Cloudy
2:52 AM -0.9 °F -19.1 °F -7.1 °F 75% 30.53 in 10.0 mi NW 12.7 mph 23.0 mph N/A   Clear
3:52 AM -2.9 °F -20.8 °F -9.0 °F 75% 30.56 in 10.0 mi NW 11.5 mph - N/A   Clear
4:52 AM -2.9 °F -19.8 °F -9.0 °F 75% 30.58 in 10.0 mi NW 10.4 mph - N/A   Clear
5:52 AM -4.0 °F -25.2 °F -11.0 °F 72% 30.59 in 10.0 mi NW 16.1 mph - N/A   Clear
6:52 AM -5.1 °F -25.1 °F -11.0 °F 76% 30.61 in 10.0 mi NW 13.8 mph - N/A   Clear
7:52 AM -6.0 °F -25.5 °F -11.9 °F 75% 30.64 in 10.0 mi NW 12.7 mph - N/A   Clear
8:52 AM -5.1 °F -27.2 °F -13.0 °F 69% 30.66 in 10.0 mi NW 17.3 mph - N/A   Clear
9:52 AM -2.9 °F -26.7 °F -13.0 °F 62% 30.68 in 10.0 mi NW 21.9 mph 25.3 mph N/A   Clear
10:52 AM -0.0 °F -21.8 °F -13.0 °F 54% 30.68 in 10.0 mi NW 19.6 mph - N/A   Clear
11:52 AM 3.0 °F -17.3 °F -13.0 °F 47% 30.66 in 10.0 mi NNW 18.4 mph 26.5 mph N/A   Clear
12:52 PM 3.9 °F -14.3 °F -14.1 °F 43% 30.65 in 10.0 mi WNW 15.0 mph - N/A   Clear
1:52 PM 6.1 °F -11.6 °F -13.0 °F 41% 30.63 in 10.0 mi WNW 15.0 mph - N/A   Clear
2:52 PM 6.1 °F -11.6 °F -13.0 °F 41% 30.63 in 10.0 mi NW 15.0 mph - N/A   Clear
3:52 PM 5.0 °F -11.6 °F -14.1 °F 41% 30.64 in 10.0 mi NW 12.7 mph - N/A   Clear
4:52 PM 3.0 °F -11.5 °F -14.1 °F 45% 30.66 in 10.0 mi WNW 9.2 mph - N/A   Clear
5:52 PM -0.9 °F -14.1 °F -15.0 °F 52% 30.66 in 10.0 mi WNW 6.9 mph - N/A   Clear
6:52 PM -2.0 °F -13.9 °F -16.1 °F 51% 30.66 in 10.0 mi NW 5.8 mph - N/A   Clear
7:52 PM -2.0 °F -12.2 °F -16.1 °F 51% 30.66 in 10.0 mi NW 4.6 mph - N/A   Clear
8:52 PM -5.1 °F -13.6 °F -15.0 °F 62% 30.65 in 10.0 mi NNW 3.5 mph - N/A   Clear
9:52 PM -9.0 °F -18.2 °F -15.0 °F 75% 30.65 in 10.0 mi West 3.5 mph - N/A   Clear
10:52 PM -9.0 °F -20.4 °F -15.0 °F 75% 30.62 in 10.0 mi East 4.6 mph - N/A   Clear
11:52 PM -9.0 °F -22.3 °F -17.0 °F 68% 30.62 in 10.0 mi East 5.8 mph - N/A   Clear